Stations météo

Publicité
Bournemouth Airport, Grande-Bretagne (3862): Température de l'air & dewpoint: 25.09.2020 09:00:00 - 01.10.2020 09:00:00 (BST)Bournemouth Airport, Grande-Bretagne (3862): Température de l'air -20cm & Température de l'air -100cm: 25.09.2020 09:00:00 - 01.10.2020 09:00:00 (BST)Bournemouth Airport, Grande-Bretagne (3862): Vitesse du vent & gusts: 25.09.2020 09:00:00 - 01.10.2020 09:00:00 (BST)Bournemouth Airport, Grande-Bretagne (3862): Direction du vent: 25.09.2020 09:00:00 - 01.10.2020 09:00:00 (BST)Bournemouth Airport, Grande-Bretagne (3862): reduced air pressure: 25.09.2020 09:00:00 - 01.10.2020 09:00:00 (BST)Bournemouth Airport, Grande-Bretagne (3862): visibility: 25.09.2020 09:00:00 - 01.10.2020 09:00:00 (BST)Bournemouth Airport, Grande-Bretagne (3862): Ensoleillement: 25.09.2020 09:00:00 - 01.10.2020 09:00:00 (BST)Bournemouth Airport, Grande-Bretagne (3862): Quantités de précipitations: 25.09.2020 09:00:00 - 01.10.2020 09:00:00 (BST)
Date & Time tt [°C] td [°C] tt -20cm [°C] tt -100cm [°C] ff [km/h] ff [knt] fx [km/h] fx [knt] dd ppp [hPa] vv [km] sd [min] rr [mm]
01.10.2020 09:00:00 9,9 9,8 - - 13 7 - - W 1000,0 30 6 0,0
01.10.2020 08:00:00 7,6 7,4 - - 4 2 - - W 1000,1 10 0 0,0
01.10.2020 07:00:00 8,0 7,8 - - 8 4 - - WNW 999,9 10 0 0,0
01.10.2020 06:00:00 8,5 8,3 - - 5 3 - - W 999,9 19 0 0,0
01.10.2020 05:00:00 6,3 6,0 - - 2 1 - - N 999,8 0,2 0 0,0
01.10.2020 04:00:00 6,9 6,6 - - 4 2 - - SW 999,9 0,3 0 0,0
01.10.2020 03:00:00 8,2 7,8 - - 0 0 - - N 1000,2 0,3 0 0,0
01.10.2020 02:00:00 9,7 9,4 - - 0 0 - - N 1000,1 1,1 0 0,0
01.10.2020 01:00:00 7,9 7,1 - - 5 3 - - WSW 1000,5 0,1 - 0,0
01.10.2020 00:00:00 10,6 10,3 - - 8 4 - - W 1000,8 0,2 0 0,2
30.09.2020 23:00:00 12,2 11,7 - - 8 4 - - SW 1001,1 18 0 0,0
30.09.2020 22:00:00 12,6 11,9 - - 8 4 - - WSW 1001,4 20 0 0,0
30.09.2020 21:00:00 13,5 12,5 - - 9 5 46 25 WSW 1001,5 35 0 1,4
30.09.2020 20:00:00 14,4 13,2 - - 39 21 61 33 SW 1001,4 8 0 2,6
30.09.2020 19:00:00 15,1 13,9 - - 31 17 54 29 SSW 1001,7 6 0 0,4
30.09.2020 18:00:00 15,0 13,5 - - 31 17 52 28 S 1002,2 10 0 0,6
30.09.2020 17:00:00 15,1 13,6 - - 29 16 52 28 SSW 1003,0 7 0 0,8
30.09.2020 16:00:00 14,8 13,4 - - 34 18 61 33 SSW 1004,1 7 0 0,8
30.09.2020 15:00:00 14,8 13,5 - - 24 13 46 25 SSW 1004,9 6 0 0,8
30.09.2020 14:00:00 15,3 13,5 - - 21 11 46 25 SSW 1005,4 7 0 0,8
30.09.2020 13:00:00 15,8 14,1 - - 26 14 - - SSW 1006,3 10 0 0,2
30.09.2020 12:00:00 16,3 13,5 - - 26 14 - - SSW 1007,0 10 0 0,2
30.09.2020 11:00:00 16,4 12,6 - - 28 15 - - SSW 1007,9 10 0 0,0
30.09.2020 10:00:00 16,0 12,7 - - 21 11 - - SSW 1008,5 10 0 0,0
30.09.2020 09:00:00 15,2 12,1 - - 16 9 - - SSW 1009,2 35 0 0,0
30.09.2020 08:00:00 14,1 10,4 - - 16 9 - - SW 1010,0 10 0 0,0
30.09.2020 07:00:00 12,6 10,4 - - 11 6 - - SSW 1010,4 30 0 0,0
30.09.2020 06:00:00 4,8 4,1 - - 9 5 - - SSW 1011,1 35 0 0,0
30.09.2020 05:00:00 4,0 3,3 - - 2 1 - - NE 1011,6 24 0 0,0
30.09.2020 04:00:00 4,6 4,1 - - 2 1 - - N 1012,4 18 0 0,0
30.09.2020 03:00:00 5,5 5,1 - - 2 1 - - NE 1013,3 0,9 0 0,0
30.09.2020 02:00:00 6,1 5,8 - - 2 1 - - NW 1013,9 0,4 0 0,0
30.09.2020 01:00:00 6,8 6,5 - - 2 1 - - NW 1014,5 0,1 - 0,0
30.09.2020 00:00:00 6,5 5,9 - - 2 1 - - SE 1014,7 0,7 0 0,0
29.09.2020 23:00:00 8,5 7,9 - - 2 1 - - ENE 1014,9 5 0 0,0
29.09.2020 22:00:00 9,1 8,1 - - 2 1 - - ENE 1015,5 0,8 0 0,0
29.09.2020 21:00:00 12,1 11,3 - - 5 3 - - SW 1015,8 10 0 0,0
29.09.2020 20:00:00 13,1 11,6 - - 4 2 - - WSW 1015,7 10 0 0,0
29.09.2020 19:00:00 14,4 11,8 - - 11 6 - - SW 1015,7 23 6 0,0
29.09.2020 18:00:00 16,7 11,5 - - 15 8 - - SW 1015,4 10 30 0,0
29.09.2020 17:00:00 17,1 12,0 - - 11 6 - - S 1015,5 10 6 0,0
29.09.2020 16:00:00 17,2 11,6 - - 13 7 - - S 1015,8 10 6 0,0
29.09.2020 15:00:00 17,6 11,7 - - 11 6 - - S 1016,1 10 0 0,0
29.09.2020 14:00:00 18,1 12,0 - - 11 6 - - SSW 1016,4 10 30 0,0
29.09.2020 13:00:00 19,0 12,2 - - 4 2 - - WNW 1016,7 50 36 0,0
29.09.2020 12:00:00 17,8 12,0 - - 9 5 - - NW 1016,7 10 48 0,0
29.09.2020 11:00:00 16,1 12,5 - - 9 5 - - NNW 1016,9 40 30 0,0
29.09.2020 10:00:00 15,0 12,3 14,0 14,7 13 7 - - NNW 1016,8 10 0 0,0
29.09.2020 09:00:00 14,5 12,5 - - 15 8 - - NW 1016,4 10 0 0,0
29.09.2020 08:00:00 14,2 12,8 - - 11 6 - - NNW 1015,8 10 0 0,0
29.09.2020 07:00:00 14,2 13,0 - - 11 6 - - NW 1015,4 40 0 0,0
29.09.2020 06:00:00 14,4 13,4 - - 15 8 - - NNW 1014,9 30 0 0,0
29.09.2020 05:00:00 15,1 14,4 - - 8 4 - - W 1014,3 8 0 0,0
29.09.2020 04:00:00 15,5 15,0 - - 8 4 - - WNW 1014,4 11 0 0,0
29.09.2020 03:00:00 15,8 15,3 - - 4 2 - - SW 1014,4 7 0 0,0
29.09.2020 02:00:00 16,1 15,3 - - 5 3 - - WSW 1014,3 11 0 0,0
29.09.2020 01:00:00 16,1 15,1 - - 8 4 - - WSW 1014,3 19 - 0,0
29.09.2020 00:00:00 16,3 15,2 - - 8 4 - - WSW 1014,6 11 0 0,0
28.09.2020 23:00:00 16,1 15,2 - - 8 4 - - WSW 1014,6 9 0 0,0
28.09.2020 22:00:00 16,3 15,0 - - 8 4 - - WSW 1014,7 12 0 0,0
28.09.2020 21:00:00 16,1 14,8 - - 9 5 - - WSW 1014,5 13 0 0,0
28.09.2020 20:00:00 16,0 14,3 - - 8 4 - - WSW 1014,5 15 0 0,0
28.09.2020 19:00:00 16,8 14,0 - - 13 7 - - W 1014,1 10 0 0,0
28.09.2020 18:00:00 17,1 14,0 - - 16 9 - - WSW 1013,7 25 0 0,0
28.09.2020 17:00:00 17,4 13,4 - - 13 7 - - WSW 1013,7 30 0 0,0
28.09.2020 16:00:00 17,6 12,8 - - 11 6 - - WSW 1013,6 40 0 0,0
28.09.2020 15:00:00 17,5 12,8 - - 11 6 - - WNW 1013,9 35 18 0,0
28.09.2020 14:00:00 16,1 12,5 - - 15 8 - - W 1014,5 10 0 0,0
28.09.2020 13:00:00 14,8 11,2 - - 11 6 - - WNW 1014,7 10 0 0,0
28.09.2020 12:00:00 13,1 8,2 - - 9 5 - - W 1014,9 40 0 0,0
28.09.2020 11:00:00 12,8 7,4 - - 11 6 - - W 1015,0 10 12 0,0
28.09.2020 10:00:00 10,0 6,8 13,4 14,7 5 3 - - - 1014,9 10 48 0,0
28.09.2020 09:00:00 5,3 4,9 - - 2 1 - - NNW 1015,0 10 18 0,0
28.09.2020 08:00:00 1,4 0,7 - - 2 1 - - N 1014,7 10 0 0,0
28.09.2020 07:00:00 1,3 0,4 - - 2 1 - - WNW 1014,4 35 0 0,0
28.09.2020 06:00:00 1,8 0,9 - - 2 1 - - WNW 1014,3 10 0 0,0
28.09.2020 05:00:00 2,4 1,3 - - 8 4 - - NNW 1014,4 30 0 0,0
28.09.2020 04:00:00 3,1 1,5 - - 2 1 - - NW 1014,8 35 0 0,0
28.09.2020 03:00:00 3,7 1,6 - - 8 4 - - W 1015,2 35 0 0,0
28.09.2020 02:00:00 4,8 3,3 - - 5 3 - - NW 1015,4 35 0 0,0
28.09.2020 01:00:00 4,2 3,2 - - 9 5 - - NNE 1015,4 30 - 0,0
28.09.2020 00:00:00 5,6 4,9 - - 13 7 - - WNW 1015,5 20 0 0,0
27.09.2020 23:00:00 4,8 2,1 - - 2 1 - - WNW 1015,5 35 0 0,0
27.09.2020 22:00:00 5,2 1,5 - - 4 2 - - WNW 1015,3 45 0 0,0
27.09.2020 21:00:00 8,5 2,3 - - 2 1 - - WNW 1015,0 45 0 0,0
27.09.2020 20:00:00 10,2 1,8 - - 13 7 - - NNW 1014,4 50 0 0,0
27.09.2020 19:00:00 12,5 1,7 - - 13 7 - - NNW 1014,0 10 42 0,0
27.09.2020 18:00:00 15,3 1,7 - - 21 11 - - N 1013,7 10 60 0,0
27.09.2020 17:00:00 16,1 2,5 - - 28 15 - - NNW 1013,3 10 60 0,0
27.09.2020 16:00:00 16,2 3,2 - - 28 15 - - N 1013,4 10 60 0,0
27.09.2020 15:00:00 16,5 4,7 - - 28 15 - - NNW 1013,6 10 60 0,0
27.09.2020 14:00:00 15,3 3,6 - - 34 18 - - NNW 1014,1 10 60 0,0
27.09.2020 13:00:00 14,2 4,5 - - 29 16 - - NNW 1014,4 10 60 0,0
27.09.2020 12:00:00 12,8 4,8 - - 31 17 46 25 N 1014,3 10 60 0,0
27.09.2020 11:00:00 11,3 4,3 - - 34 18 52 28 N 1014,7 10 60 0,0
27.09.2020 10:00:00 10,2 4,2 - - 29 16 48 26 N 1014,2 10 60 0,0
27.09.2020 09:00:00 9,2 3,9 - - 22 12 - - N 1014,4 10 18 0,0
27.09.2020 08:00:00 7,9 3,5 - - 26 14 - - NNW 1014,1 27 0 0,0
27.09.2020 07:00:00 7,5 3,1 - - 26 14 - - NNW 1013,9 30 0 0,0
27.09.2020 06:00:00 9,0 3,7 - - 26 14 - - NNW 1014,1 30 0 0,0
27.09.2020 05:00:00 8,7 4,0 - - 22 12 - - NNW 1014,2 30 0 0,0
27.09.2020 04:00:00 8,5 4,0 - - 16 9 - - NNW 1014,4 35 0 0,0
27.09.2020 03:00:00 9,7 3,9 - - 22 12 - - NNW 1014,6 40 0 0,0
27.09.2020 02:00:00 10,4 4,0 - - 18 10 - - NNW 1014,7 45 0 0,0
27.09.2020 01:00:00 10,0 4,9 - - 18 10 - - NNW 1014,9 10 - 0,0
27.09.2020 00:00:00 9,5 4,9 - - 21 11 - - NNW 1015,1 10 0 0,0
26.09.2020 23:00:00 9,3 4,8 - - 18 10 - - NW 1015,1 10 0 0,0
26.09.2020 22:00:00 9,7 4,8 - - 21 11 - - NNW 1015,1 10 0 0,0
26.09.2020 21:00:00 10,1 4,4 - - 15 8 - - NNW 1015,0 60 0 0,0
26.09.2020 20:00:00 10,2 4,0 - - 15 8 - - NW 1014,5 55 0 0,0
26.09.2020 19:00:00 11,4 3,4 - - 24 13 - - N 1014,1 60 48 0,0
26.09.2020 18:00:00 12,8 2,7 - - 31 17 48 26 N 1013,5 70 60 0,0
26.09.2020 17:00:00 13,8 2,9 - - 31 17 46 25 N 1013,3 10 60 0,0
26.09.2020 16:00:00 14,0 2,1 - - 34 18 52 28 N 1012,8 10 60 0,0
26.09.2020 15:00:00 14,0 1,8 - - 29 16 46 25 NNW 1012,8 10 60 0,0
26.09.2020 14:00:00 13,2 0,7 - - 28 15 46 25 NNW 1013,2 10 60 0,0
26.09.2020 13:00:00 13,1 1,1 - - 31 17 - - N 1013,5 10 60 0,0
26.09.2020 12:00:00 12,6 1,6 - - 26 14 50 27 NNW 1013,6 10 60 0,0
26.09.2020 11:00:00 11,4 0,8 - - 34 18 54 29 NNW 1013,3 10 60 0,0
26.09.2020 10:00:00 10,4 3,5 - - 26 14 - - NNW 1013,4 10 60 0,0
26.09.2020 09:00:00 8,6 4,6 - - 18 10 - - NW 1013,5 10 24 0,0
26.09.2020 08:00:00 6,1 4,2 - - 11 6 - - WNW 1013,3 45 0 0,0
26.09.2020 07:00:00 5,2 3,1 - - 13 7 - - NW 1013,0 35 0 0,0
26.09.2020 06:00:00 6,3 3,6 - - 15 8 - - NW 1012,9 10 0 0,0
26.09.2020 05:00:00 7,0 3,8 - - 21 11 - - WNW 1012,9 40 0 0,0
26.09.2020 04:00:00 7,6 4,2 - - 21 11 - - NW 1012,9 40 0 0,0
26.09.2020 03:00:00 7,9 4,8 - - 21 11 - - WNW 1012,8 40 0 0,0
26.09.2020 02:00:00 8,0 4,9 - - 16 9 - - WNW 1012,7 45 0 0,0
26.09.2020 01:00:00 8,1 5,0 - - 16 9 - - WNW 1013,0 50 - 0,0
26.09.2020 00:00:00 8,5 4,8 - - 21 11 - - WNW 1012,5 60 0 0,0
25.09.2020 23:00:00 9,0 5,0 - - 18 10 - - WNW 1012,4 10 0 0,0
25.09.2020 22:00:00 10,1 5,4 - - 24 13 - - WNW 1012,2 10 0 0,0
25.09.2020 21:00:00 10,6 4,3 - - 22 12 - - NW 1012,1 10 0 0,0
25.09.2020 20:00:00 12,0 4,1 - - 26 14 - - NW 1011,4 55 0 0,0
25.09.2020 19:00:00 12,9 4,9 - - 22 12 - - WNW 1010,4 10 48 0,0
25.09.2020 18:00:00 14,6 3,5 - - 31 17 54 29 NW 1009,4 10 60 0,0
25.09.2020 17:00:00 15,5 3,0 - - 31 17 57 31 NNW 1008,9 10 60 0,0
25.09.2020 16:00:00 15,7 3,3 - - 37 20 59 32 NW 1008,6 10 60 0,0
25.09.2020 15:00:00 15,9 2,5 - - 37 20 61 33 NNW 1008,2 75 60 0,0
25.09.2020 14:00:00 14,2 2,1 - - 37 20 54 29 NW 1007,8 10 42 0,0
25.09.2020 13:00:00 13,9 2,9 - - 35 19 57 31 NNW 1007,2 60 54 0,0
25.09.2020 12:00:00 13,6 4,6 - - 34 18 59 32 NNW 1006,8 10 54 0,0
25.09.2020 11:00:00 11,9 4,8 - - 35 19 52 28 NW 1006,4 10 60 0,0
25.09.2020 10:00:00 10,8 5,5 15,2 15,7 28 15 - - NW 1005,4 10 60 0,0
25.09.2020 09:00:00 8,7 6,2 - - 22 12 - - NW 1004,0 10 18 0,0

tt = Température de l'air
td = dewpoint
tt -20cm = Température de l'air -20cm
tt -100cm = Température de l'air -100cm
ff = Vitesse du vent
fx = gusts
dd = Direction du vent
ppp = reduced air pressure
vv = visibility
sd = Ensoleillement
rr = Quantités de précipitations

stations d'obs. à proximité